Newport News, VA

11:01 AM EDT on April 25, 2017 (GMT -0400)
Newport News-Williamsburg International

Weather History for KPHF - April, 2014

Change the Weather History Date:

Friday, April 25, 2014

  Actual Average Record
Temperature  
Mean Temperature 60 °F -  
Max Temperature 75 °F 71 °F 96 °F (1960)
Min Temperature 45 °F 50 °F 39 °F (1956)
Degree Days  
Heating Degree Days 5    
Growing Degree Days 10 (Base 50)    
Moisture  
Dew Point 53 °F    
Average Humidity 70    
Maximum Humidity 87    
Minimum Humidity 37    
Precipitation  
Precipitation 0.74 in - - ()
Sea Level Pressure  
Sea Level Pressure 29.83 in    
Wind  
Wind Speed 7 mph (SSE)    
Max Wind Speed 18 mph    
Max Gust Speed 28 mph    
Visibility 8 miles    
Events      
Averages and records for this station are not official NWS values.
T = Trace of Precipitation, MM = Missing Value Source: NWS Daily Summary

Daily Weather History Graph

Daily Weather History Graph

Search for Another Location

Airport or City:

Trip Planner

Search our weather history database for the weather conditions in past years. The results will help you decide how hot, cold, wet, or windy it might be!

Date:

Astronomy

Apr. 25, 2014 Rise Set
Actual Time 6:18 AM EDT 7:49 PM EDT
Civil Twilight 5:51 AM EDT 8:17 PM EDT
Nautical Twilight 5:18 AM EDT 8:50 PM EDT
Astronomical Twilight 4:43 AM EDT 9:25 PM EDT
Moon 3:59 AM EDT 4:14 PM EDT
Length of Visible Light 14h 26m
Length of Day
13h 31m
Waning Crescent, 15% of the Moon is Illuminated
Apr 25
Waning Crescent
Apr 29
New
May 6
First Quarter
May 14
Full
May 21
Last Quarter

Hourly Weather History & Observations

Time (EDT) Temp. Dew Point Humidity Pressure Visibility Wind Dir Wind Speed Gust Speed Precip Events Conditions
12:54 AM 53.1 °F 37.9 °F 57% 30.04 in 10.0 mi Calm Calm - N/A   Clear
1:54 AM 48.0 °F 39.0 °F 71% 30.02 in 10.0 mi ENE 4.6 mph - N/A   Clear
2:54 AM 48.0 °F 41.0 °F 77% 30.01 in 10.0 mi Calm Calm - N/A   Clear
3:54 AM 45.0 °F 39.9 °F 82% 30.02 in 10.0 mi Calm Calm - N/A   Clear
4:54 AM 46.0 °F 39.9 °F 79% 30.02 in 10.0 mi Calm Calm - N/A   Clear
5:54 AM 46.9 °F 43.0 °F 86% 30.01 in 8.0 mi East 4.6 mph - N/A   Clear
6:54 AM 50.0 °F 45.0 °F 83% 30.01 in 8.0 mi East 3.5 mph - N/A   Clear
7:54 AM 55.9 °F 48.9 °F 77% 30.02 in 10.0 mi SSE 4.6 mph - N/A   Clear
8:54 AM 63.0 °F 48.9 °F 60% 30.00 in 10.0 mi SSE 3.5 mph - N/A   Clear
9:54 AM 66.9 °F 46.9 °F 49% 29.98 in 10.0 mi ESE 8.1 mph - N/A   Scattered Clouds
10:54 AM 69.1 °F 46.9 °F 45% 29.98 in 10.0 mi South 10.4 mph - N/A   Mostly Cloudy
11:31 AM 70.0 °F 46.0 °F 42% 29.96 in 10.0 mi SE 10.4 mph - N/A   Overcast
11:54 AM 72.0 °F 46.9 °F 41% 29.95 in 10.0 mi SE 11.5 mph - N/A   Overcast
12:33 PM 71.1 °F 46.9 °F 42% 29.92 in 10.0 mi ESE 12.7 mph - N/A   Overcast
12:54 PM 72.0 °F 46.9 °F 41% 29.91 in 10.0 mi East 15.0 mph 20.7 mph N/A   Mostly Cloudy
1:54 PM 75.9 °F 48.0 °F 37% 29.87 in 10.0 mi SSE 12.7 mph 21.9 mph N/A   Clear
2:54 PM 73.9 °F 46.0 °F 37% 29.82 in 10.0 mi SE 13.8 mph 24.2 mph N/A   Clear
3:54 PM 75.0 °F 50.0 °F 41% 29.77 in 10.0 mi ESE 15.0 mph 27.6 mph N/A   Clear
4:54 PM 73.0 °F 57.0 °F 57% 29.74 in 10.0 mi SSE 16.1 mph 26.5 mph N/A   Mostly Cloudy
5:54 PM 70.0 °F 61.0 °F 73% 29.73 in 5.0 mi South 16.1 mph 25.3 mph N/A   Haze
6:52 PM 68.0 °F 62.6 °F 83% 29.70 in 1.8 mi SSE 15.0 mph - 0.29 in   Haze
6:54 PM 68.0 °F 62.1 °F 81% 29.70 in 1.8 mi SE 18.4 mph - 0.31 in   Haze
7:06 PM 66.9 °F 62.1 °F 84% 29.68 in 2.5 mi SE 15.0 mph - 0.06 in   Haze
7:14 PM 66.9 °F 62.1 °F 84% 29.69 in 4.0 mi SE 11.5 mph 21.9 mph 0.06 in   Haze
7:22 PM 66.9 °F 62.1 °F 84% 29.69 in 5.0 mi SSE 11.5 mph 18.4 mph 0.07 in   Haze
7:51 PM 66.2 °F 60.8 °F 83% 29.68 in 5.0 mi South 15.0 mph 25.3 mph 0.15 in   Haze
7:54 PM 66.9 °F 61.0 °F 81% 29.68 in 4.0 mi South 17.3 mph 25.3 mph 0.16 in   Haze
8:54 PM 66.9 °F 62.1 °F 84% 29.67 in 5.0 mi SSE 8.1 mph - 0.18 in   Haze
9:54 PM 66.0 °F 61.0 °F 84% 29.68 in 7.0 mi West 6.9 mph - 0.05 in   Overcast
10:24 PM 66.0 °F 62.1 °F 87% 29.70 in 7.0 mi WNW 6.9 mph - N/A   Overcast
10:36 PM 66.0 °F 61.0 °F 84% 29.69 in 2.5 mi West 6.9 mph - 0.04 in   Haze
10:43 PM 66.0 °F 61.0 °F 84% 29.69 in 6.0 mi West 8.1 mph - 0.04 in   Haze
10:54 PM 66.0 °F 61.0 °F 84% 29.69 in 10.0 mi West 10.4 mph - 0.04 in   Overcast
11:16 PM 66.9 °F 61.0 °F 81% 29.70 in 10.0 mi West 11.5 mph - N/A   Overcast
11:36 PM 66.0 °F 61.0 °F 84% 29.70 in 9.0 mi West 5.8 mph - N/A   Overcast
11:54 PM 66.9 °F 61.0 °F 81% 29.70 in 10.0 mi West 8.1 mph - N/A   Overcast